This is the latest recevied weather packets stored in our database for station/object N9EA. If no packets are shown the sender has not sent any weather packets the latest 10 day(s).
| Time | Temp. | Humidity | Pressure | Rain* | Wind** | Luminosity | Snow |
|---|---|---|---|---|---|---|---|
| 1777898617 | 14.44° C | 61% | 1002.5 hPa | 0 mm | - | 144 W/m² | - |
| 1777898315 | 13.89° C | 62% | 1002.8 hPa | 0 mm | - | 132 W/m² | - |
| 1777898012 | 13.89° C | 62% | 1002.8 hPa | 0 mm | - | 120 W/m² | - |
| 1777897708 | 13.89° C | 62% | 1002.7 hPa | 0 mm | - | 110 W/m² | - |
| 1777897405 | 13.33° C | 62% | 1002.9 hPa | 0 mm | - | 100 W/m² | - |
| 1777897101 | 13.33° C | 63% | 1002.9 hPa | 0 mm | - | 90 W/m² | - |
| 1777896797 | 12.78° C | 63% | 1002.9 hPa | 0 mm | - | 81 W/m² | - |
| 1777896494 | 12.78° C | 63% | 1002.9 hPa | 0 mm | - | 72 W/m² | - |
| 1777896191 | 12.22° C | 64% | 1002.8 hPa | 0 mm | - | 63 W/m² | - |
| 1777895889 | 12.22° C | 64% | 1002.8 hPa | 0 mm | - | 32 W/m² | - |
| 1777895587 | 11.67° C | 65% | 1002.9 hPa | 0 mm | - | 30 W/m² | - |
| 1777895284 | 11.67° C | 65% | 1002.8 hPa | 0 mm | - | 28 W/m² | - |
| 1777894982 | 11.67° C | 65% | 1003.1 hPa | 0 mm | - | 26 W/m² | - |
| 1777894679 | 11.11° C | 65% | 1002.8 hPa | 0 mm | - | 23 W/m² | - |
| 1777894375 | 11.11° C | 65% | 1002.7 hPa | 0 mm | - | 21 W/m² | - |
| 1777894073 | 11.11° C | 66% | 1002.9 hPa | 0 mm | - | 18 W/m² | - |
| 1777893769 | 11.11° C | 66% | 1002.8 hPa | 0 mm | - | 15 W/m² | - |
| 1777893466 | 11.11° C | 66% | 1002.7 hPa | 0 mm | - | 13 W/m² | - |
| 1777893163 | 10.56° C | 66% | 1002.7 hPa | 0 mm | - | 10 W/m² | - |
| 1777892859 | 11.11° C | 66% | 1002.7 hPa | 0 mm | - | 7 W/m² | - |
| 1777892556 | 11.11° C | 66% | 1002.5 hPa | 0 mm | - | 5 W/m² | - |
| 1777892251 | 11.11° C | 66% | 1002.9 hPa | 0 mm | - | 3 W/m² | - |
| 1777891948 | 11.11° C | 66% | 1002.9 hPa | 0 mm | - | 2 W/m² | - |
| 1777891646 | 11.11° C | 66% | 1002.9 hPa | 0 mm | - | 1 W/m² | - |
| 1777891342 | 11.11° C | 66% | 1003.1 hPa | 0 mm | - | 0 W/m² | - |
* Rain latest hour (hover to see other rain measurements)
** Current wind speed in m/s (hover to see current wind gust speed)